Ten-Koh (43677 NORAD) Tracking and Keplerian Element Data

This shows tracking and keplerian element data for the satellite.

Feedback or suggestion? Click here.




ElementValue
Catalog43677
NameTen-Koh
Epoch Orbit3791
Epoch Day191.84835116
Epoch Year2019
RAAN305.4367
Inclination97.854
Eccentricity0.0015454
Argument of Perigee204.1602
Mean Anonmoly155.8892
Mean Motion14.9017434
Decay Rate1.12E-06
L11 43677U 18084G 19191.84835116 .00000112 00000-0 17377-4 0 9998
L22 43677 97.8540 305.4367 0015454 204.1602 155.8892 14.90174340 37915

Live tracking and technical data element details for Ten-Koh (NORAD 43677). Ten-Koh can be tracked NOW for your location showing map with azimuth and elevation plus other details from your city location.

Track the satellite on the map from your city or location and see movement details for azimuth, elevation, latitude, longitude, range, height, and movement on the map or in text.







IsCatalogInMostPopularTable: catalog: 43677, numindb: 163
Update: records affected: 1



GetName: 43677 Ten-Koh

Hit Count: updated at: Tue, 16 Jul 2019 14:59:32 GMT